This is the latest recevied weather packets stored in our database for station/object OE5XFR. If no packets are shown the sender has not sent any weather packets the latest 10 day(s).
| Time | Temp. | Humidity | Pressure | Rain* | Wind** | Luminosity | Snow |
|---|---|---|---|---|---|---|---|
| 1777688475 | 5° C | 66% | 1025 hPa | 0 mm | - | - | - |
| 1777687755 | 5° C | 66% | 1025 hPa | 0 mm | - | - | - |
| 1777687037 | 5° C | 66% | 1025 hPa | 0 mm | - | - | - |
| 1777686315 | 5° C | 66% | 1025 hPa | 0 mm | - | - | - |
| 1777685595 | 5° C | 66% | 1026 hPa | 0 mm | - | - | - |
| 1777684875 | 5.56° C | 66% | 1026 hPa | 0 mm | - | - | - |
| 1777684155 | 6.11° C | 67% | 1026 hPa | 0 mm | - | - | - |
| 1777683435 | 6.11° C | 65% | 1026 hPa | 0 mm | - | - | - |
| 1777682715 | 6.11° C | 64% | 1026 hPa | 0 mm | - | - | - |
| 1777681995 | 6.11° C | 63% | 1026 hPa | 0 mm | - | - | - |
| 1777681275 | 6.67° C | 63% | 1026 hPa | 0 mm | - | - | - |
| 1777680555 | 7.22° C | 57% | 1026 hPa | 0 mm | - | - | - |
| 1777679835 | 7.78° C | 56% | 1026 hPa | 0 mm | - | - | - |
| 1777679115 | 7.78° C | 55% | 1026 hPa | 0 mm | - | - | - |
| 1777678395 | 8.33° C | 53% | 1026 hPa | 0 mm | - | - | - |
| 1777677675 | 8.33° C | 54% | 1026 hPa | 0 mm | - | - | - |
| 1777676955 | 8.33° C | 54% | 1026 hPa | 0 mm | - | - | - |
| 1777676235 | 8.33° C | 54% | 1026 hPa | 0 mm | - | - | - |
| 1777675515 | 8.33° C | 56% | 1026 hPa | 0 mm | - | - | - |
| 1777674797 | 8.33° C | 55% | 1026 hPa | 0 mm | - | - | - |
| 1777674076 | 8.33° C | 55% | 1026 hPa | 0 mm | - | - | - |
| 1777673356 | 9.44° C | 51% | 1026 hPa | 0 mm | - | - | - |
| 1777672635 | 9.44° C | 49% | 1026 hPa | 0 mm | - | - | - |
| 1777671914 | 9.44° C | 49% | 1026 hPa | 0 mm | - | - | - |
| 1777671195 | 10° C | 49% | 1027 hPa | 0 mm | - | - | - |
* Rain latest hour (hover to see other rain measurements)
** Current wind speed in m/s (hover to see current wind gust speed)